IZ2OSD Weather Reports


time (UTC)temp
C
wind
direction
speed
KPH
gust
KPH
rain 1hr
cm
rain 24hr
cm
rain mn
cm
humidity
%
barometer
mb
20260504000021 16 0.0 0.0 0.00 0.00 0.00 59 1016.2
20260503235014 16 0.0 0.0 0.00 0.00 0.00 58 1016.1
20260503234011 16 0.0 0.0 0.00 0.00 0.00 57 1016.3
20260503233008 16 0.0 0.0 0.00 0.00 0.00 57 1016.5
20260503232500 16 0.0 0.0 0.00 0.00 0.00 57 1016.7
20260503231455 16 0.0 0.0 0.00 0.00 0.00 56 1016.5
20260503230446 16 0.0 0.0 0.00 0.00 0.00 56 1016.6
20260503225445 16 0.0 0.0 0.00 0.00 0.00 55 1016.6
20260503224438 17 0.0 0.0 0.00 0.00 0.00 54 1016.6
20260503223435 17 0.0 0.0 0.00 0.00 0.00 53 1016.6
20260503222432 17 0.0 0.0 0.00 0.00 0.00 53 1016.6
20260503221423 17 0.0 0.0 0.00 0.00 0.00 53 1016.7
20260503220419 17 0.0 0.0 0.00 0.00 0.00 53 1016.5
20260503215414 17 0.0 0.0 0.00 0.00 0.00 51 1016.4
20260503214430 17 0.0 0.0 0.00 0.00 0.00 50 1016.3
20260503213408 17 0.0 0.0 0.00 0.00 0.00 50 1016.3
20260503212405 17 0.0 0.0 0.00 0.00 0.00 49 1016.3
20260503211401 18 0.0 0.0 0.00 0.00 0.00 49 1016.2
20260503210358 18 0.0 0.0 0.00 0.00 0.00 49 1016.2
20260503205355 18 0.0 0.0 0.00 0.00 0.00 48 1016.1
20260503204351 18 0.0 0.0 0.00 0.00 0.00 47 1016.3
20260503203347 18 0.0 0.0 0.00 0.00 0.00 47 1016.2
20260503202344 18 0.0 0.0 0.00 0.00 0.00 46 1016.2
20260503201334 18 0.0 0.0 0.00 0.00 0.00 45 1016.1
20260503200324 18 0.0 0.0 0.00 0.00 0.00 44 1016.0
20260503195321 18 0.0 0.0 0.00 0.00 0.00 43 1016.0
20260503194317 19 0.0 0.0 0.00 0.00 0.00 44 1015.7
20260503193313 19 0.0 0.0 0.00 0.00 0.00 43 1015.8
20260503192310 20 0.0 0.0 0.00 0.00 0.00 44 1015.6
20260503191306 20 0.0 0.0 0.00 0.00 0.00 43 1015.3
20260503190258 20 315 0.0 1.6 0.00 0.00 0.00 42 1015.7
20260503185253 20 315 1.6 3.2 0.00 0.00 0.00 43 1015.3
20260503184249 20 315 1.6 4.8 0.00 0.00 0.00 43 1015.4
20260503183246 20 315 1.6 3.2 0.00 0.00 0.00 41 1015.3
20260503182237 21 315 1.6 3.2 0.00 0.00 0.00 39 1015.2
20260503181234 21 0.0 0.0 0.00 0.00 0.00 38 1015.1
20260503180224 21 0.0 1.6 0.00 0.00 0.00 38 1015.3
20260503175219 21 0.0 1.6 0.00 0.00 0.00 39 1014.9
20260503174214 21 292 0.0 3.2 0.00 0.00 0.00 41 1015.3
20260503173211 22 0.0 0.0 0.00 0.00 0.00 40 1015.3
20260503172208 22 0.0 0.0 0.00 0.00 0.00 40 1015.1
20260503171205 22 0.0 0.0 0.00 0.00 0.00 40 1015.1
20260503170201 22 0.0 0.0 0.00 0.00 0.00 39 1015.1
20260503160133 23 315 1.6 3.2 0.00 0.00 0.00 39 1015.6
20260503131013 23 315 1.6 4.8 0.00 0.00 0.00 35 1017.4
20260503110522 22 292 3.2 4.8 0.00 0.00 0.00 39 1017.6
20260503090222 22 292 0.0 1.6 0.00 0.00 0.00 40 1018.1
20260503081200 18 0 1.6 9.7 0.00 0.00 0.00 55 1018.4
20260503080716 20 225 0.0 1.6 0.00 0.00 0.00 53 1018.3
20260503072609 18 301 1.6 4.8 0.00 0.00 0.00 59 1018.3
20260503071559 17 337 1.6 3.2 0.00 0.00 0.00 60 1018.3
20260503070556 17 292 4.8 6.4 0.00 0.00 0.00 60 1018.3
20260503054522 15 0.0 0.0 0.00 0.00 0.00 67 1018.2
20260503053517 15 315 0.0 1.6 0.00 0.00 0.00 68 1018.1
20260503052513 13 315 1.6 3.2 0.00 0.00 0.00 69 1017.9
20260503051511 13 315 0.0 1.6 0.00 0.00 0.00 70 1017.7
20260503050507 12 315 0.0 1.6 0.00 0.00 0.00 72 1017.8
20260503045544 13 0.0 0.0 0.00 0.00 0.00 71 1017.9
20260503044500 13 0.0 0.0 0.00 0.00 0.00 71 1018.1
20260503043457 11 0.0 0.0 0.00 0.00 0.00 76 1018.1
20260503042447 11 0.0 0.0 0.00 0.00 0.00 76 1018.1
20260503041443 11 0.0 0.0 0.00 0.00 0.00 75 1017.9
20260503040440 12 0.0 0.0 0.00 0.00 0.00 74 1018.1
20260503035436 11 0.0 0.0 0.00 0.00 0.00 75 1018.1
20260503034433 11 0.0 0.0 0.00 0.00 0.00 75 1017.9
20260503033423 11 0.0 0.0 0.00 0.00 0.00 74 1017.6
20260503032500 11 0.0 0.0 0.00 0.00 0.00 74 1017.7
20260503031415 11 0.0 0.0 0.00 0.00 0.00 74 1018.2
20260503030413 11 0.0 0.0 0.00 0.00 0.00 74 1017.7
20260503025410 11 0.0 0.0 0.00 0.00 0.00 74 1017.8
20260503024405 12 0.0 0.0 0.00 0.00 0.00 73 1018.1
20260503023422 12 0.0 0.0 0.00 0.00 0.00 72 1018.2
20260503022359 12 0.0 0.0 0.00 0.00 0.00 70 1018.2
20260503021349 12 0.0 0.0 0.00 0.00 0.00 70 1018.4
20260503020348 12 0.0 0.0 0.00 0.00 0.00 68 1018.2
20260503015336 12 0.0 0.0 0.00 0.00 0.00 69 1018.2
20260503014353 12 0.0 0.0 0.00 0.00 0.00 69 1018.4
20260503013328 12 0.0 0.0 0.00 0.00 0.00 69 1018.2
20260503012325 12 0.0 0.0 0.00 0.00 0.00 69 1018.2
20260503011342 12 0.0 0.0 0.00 0.00 0.00 68 1018.3
20260503010311 12 0.0 0.0 0.00 0.00 0.00 69 1018.7
20260503005308 12 0.0 0.0 0.00 0.00 0.00 69 1018.8
20260503004303 13 0.0 0.0 0.00 0.00 0.00 69 1019.0
20260503003301 13 0.0 0.0 0.00 0.00 0.00 68 1019.0
20260503002259 13 0.0 0.0 0.00 0.00 0.00 67 1019.1
20260503001248 13 0.0 0.0 0.00 0.00 0.00 65 1019.1